Regional Weather Roundup
Issued by NWS

Home | Current Version | Previous Version | Text Only | Print | Product List | Glossary Off
Versions: 1 2 3 4 5 6 7 8 9 10 11 12 13 14 15 16 17 18 19 20 21 22 23 24 25 26 27 28 29 30 31 32 33 34 35 36 37 38 39 40 41 42 43 44 45 46 47 48 49 50

560
ASUS43 KBIS 061010
RWRND

NORTH DAKOTA REGIONAL WEATHER ROUNDUP
NATIONAL WEATHER SERVICE BISMARCK ND
500 AM CDT FRI MAY 06 2016

NOTE: "FAIR" INDICATES FEW OR NO CLOUDS BELOW 12,000 FEET WITH NO
SIGNIFICANT WEATHER AND/OR OBSTRUCTIONS TO VISIBILITY.


NDZ001>003-009>011-017-061100-
NORTHWEST NORTH DAKOTA

CITY           SKY/WX    TMP DP  RH WIND       PRES   REMARKS
WILLISTON      CLOUDY    60  44  55 N20       29.87R
MINOT          CLOUDY    69  39  33 NW15      29.76R
MINOT AFB      CLOUDY    64  42  45 NW17      29.76R
$$

NDZ018>021-031>035-040>046-061100-
SOUTHWEST NORTH DAKOTA

CITY           SKY/WX    TMP DP  RH WIND       PRES   REMARKS
BISMARCK       CLOUDY    51  47  86 E5        29.78S
DICKINSON      CLOUDY    53  44  71 W9        29.80R
GARRISON         N/A     56  42  59 CALM      29.77R
HETTINGER ARPT PTCLDY    46  42  86 NW5       29.85R
$$

NDZ004>008-012>016-024-026-027-054-061100-
NORTHEAST NORTH DAKOTA

CITY           SKY/WX    TMP DP  RH WIND       PRES   REMARKS
GRAND FORKS    CLEAR     60  47  61 SW10      29.67F
GRND FRKS AFB  CLEAR     64  48  55 SW9       29.67F
DEVILS LAKE    PTCLDY    59  44  57 SW9       29.72S
$$

NDZ022-023-025-028>030-036>039-047>053-061100-
SOUTHEAST NORTH DAKOTA

CITY           SKY/WX    TMP DP  RH WIND       PRES   REMARKS
FARGO          PTCLDY    62  42  47 S7        29.75S
JAMESTOWN      CLEAR     51  45  79 S8        29.74F
$$





USA.gov is the U.S. government's official web portal to all federal, state and local government web resources and services.